Regional Weather Roundup
Issued by NWS

Home | Current Version | Previous Version | Text Only | Print | Product List | Glossary On
Versions: 1 2 3 4 5 6 7 8 9 10 11 12 13 14 15 16 17 18 19 20 21 22 23 24 25 26 27 28 29 30 31 32 33 34 35 36 37 38 39 40 41 42 43 44 45 46 47 48 49 50
558
ASUS44 KJAN 190903
RWRMS

MISSISSIPPI HOURLY WEATHER ROUNDUP
NATIONAL WEATHER SERVICE JACKSON MS
400 AM CDT SAT APR 19 2014

NOTE: "FAIR: INDICATES FEW OR NO CLOUDS BELOW 12,000 FEET WITH NO
SIGNIFICANT WEATHER AND/OR OBSTRUCTIONS TO VISIBILITY.

MSZ001>002-007>008-010>013-018>021-025>028-034>036-191000-
NORTHWEST MISSISSIPPI

CITY           SKY/WX    TMP DP  RH WIND       PRES   REMARKS
CLARKSDALE       N/A     54  54 100 CALM      30.19F
CLEVELAND      FAIR      53  53  99 E5        30.15F
GREENWOOD      MOCLDY    51  50  96 CALM      30.17F
GREENVILLE     CLEAR     55  52  89 E5        30.14F
GRENADA        FAIR      48  48 100 CALM      30.18F
OLIVE BRANCH   CLEAR     52  52 100 CALM      30.19S
OXFORD         FAIR      46  46 100 CALM      30.20S
TUNICA         SUNNY     52  50  93 CALM      30.19F FOG
$$

MSZ003>006-009-014>017-022>024-029>033-037>039-191000-
NORTHEAST MISSISSIPPI

CITY           SKY/WX    TMP DP  RH WIND       PRES   REMARKS
BELMONT        FAIR      48  47  99 CALM      30.16S
COLUMBUS AFB   PTCLDY    48  48 100 NW1       30.15F FOG
CORINTH        FAIR      48  46  93 W3        30.17S FOG
GOLDN TRIANGLE PTCLDY    52  46  82 NW3       30.18S
STARKVILLE     FAIR      45  45 100 CALM      30.16S FOG
TUPELO         CLEAR     50  48  93 CALM      30.16S
$$

MSZ040-058-191000-
CENTRAL MISSISSIPPI

CITY           SKY/WX    TMP DP  RH WIND       PRES   REMARKS
JACKSON INTL   CLEAR     50  49  96 CALM      30.15F
JACKSON HAWKNS CLEAR     52  49  89 E3        30.14F
MERIDIAN KEY   PTCLDY    50  49  96 CALM      30.14F
MERIDIAN NAS   MOCLDY    50  48  93 NW6       30.15S
RAYMOND        HAZE      48  43  81 CALM      30.14F VSB 1
VICKSBURG      CLEAR     57  54  89 CALM      30.15S
$$

MSZ059>079-191000-
SOUTH MISSISSIPPI

CITY           SKY/WX    TMP DP  RH WIND       PRES   REMARKS
BROOKHAVEN     FAIR      54  52  94 CALM      30.14F
COLUMBIA       FAIR      52  50  93 MISG      30.11F
HATTIESBURG    CLEAR     54  52  93 NW7       30.14F
MCCOMB         CLEAR     55  50  83 N5        30.12F
NATCHEZ        CLEAR     55  52  88 E5        30.14S
PINE BELT      CLEAR     54  48  82 N6        30.14F
$$

MSZ080>082-191000-
COASTAL MISSISSIPPI

CITY           SKY/WX    TMP DP  RH WIND       PRES   REMARKS
BILOXI         CLEAR     55  53  90 N10       30.08F
PASCAGOULA     PTCLDY    55  53  93 N13       30.07F
GULFPORT       CLEAR     57  51  80 N8        30.09F
$$



USA.gov is the U.S. government's official web portal to all federal, state and local government web resources and services.